Jackson, Tennessee, United States (38301)
Lat: 35.61N, Lon: 88.81W
Wx Zone: TNZ052
Local Info
Past Weather Observations for Friday, April 24, 2015

NOTE: This archive is for the closest National Weather Service station to Jackson. Information may differ from the station used for current weather conditions.

Click here for Long-term Archive

Time Weather Temperature Dewpoint Humidity Pressure Winds Precip Visibility
23:53
Clear
46°F / 8°C 43°F / 6°C 87% 30.06 in
(1018 mb)
Calm - 10SM
22:53
Clear
48°F / 9°C 43°F / 6°C 82% 30.06 in
(1018 mb)
Calm - 10SM
21:53
Clear
50°F / 10°C 45°F / 7°C 82% 30.06 in
(1018 mb)
Calm - 10SM
20:53
Clear
52°F / 11°C 45°F / 7°C 77% 30.06 in
(1018 mb)
Calm - 10SM
19:53
Clear
54°F / 12°C 43°F / 6°C 67% 30.04 in
(1017 mb)
Calm - 10SM
18:53
Clear
61°F / 16°C 34°F / 1°C 36% 30.04 in
(1017 mb)
Calm - 10SM
17:53
Clear
61°F / 16°C 36°F / 2°C 39% 30.04 in
(1017 mb)
N 6.9 mph
(N 11 kph)
- 10SM
16:53
Clear
64°F / 18°C 37°F / 3°C 37% 30.04 in
(1017 mb)
NNE 8.1 mph
(NNE 13 kph)
- 10SM
15:53
Clear
66°F / 19°C 39°F / 4°C 37% 30.06 in
(1018 mb)
NE 8.1 mph
(NE 13 kph)
- 10SM
14:53
Clear
66°F / 19°C 34°F / 1°C 30% 30.06 in
(1018 mb)
N 6.9 mph
(N 11 kph)
- 10SM
13:53
Clear
64°F / 18°C 34°F / 1°C 32% 30.06 in
(1018 mb)
NE 11.5 mph
(NE 19 kph)
- 10SM
12:53
Clear
64°F / 18°C 37°F / 3°C 37% 30.09 in
(1019 mb)
NNE 9.2 mph
(NNE 15 kph)
- 10SM
11:53
Mostly Cloudy
61°F / 16°C 34°F / 1°C 36% 30.12 in
(1020 mb)
NNE 5.8 mph
(NNE 9 kph)
- 10SM
10:53
Clear
63°F / 17°C 36°F / 2°C 37% 30.12 in
(1020 mb)
NE 8.1 mph
(NE 13 kph)
- 10SM
09:53
Clear
59°F / 15°C 36°F / 2°C 42% 30.12 in
(1020 mb)
NE 11.5 mph
(NE 19 kph)
- 10SM
08:53
Clear
55°F / 13°C 36°F / 2°C 47% 30.12 in
(1020 mb)
ENE 10.4 mph
(ENE 17 kph)
- 10SM
07:53
Clear
54°F / 12°C 37°F / 3°C 54% 30.12 in
(1020 mb)
E 5.8 mph
(E 9 kph)
- 10SM
07:23
Partly Cloudy
50°F / 10°C 37°F / 3°C 62% 30.12 in
(1020 mb)
E 8.1 mph
(E 13 kph)
- 10SM
06:53
Clear
48°F / 9°C 39°F / 4°C 71% 30.09 in
(1019 mb)
ENE 4.6 mph
(ENE 7 kph)
- 10SM
05:53
Clear
45°F / 7°C 39°F / 4°C 81% 30.09 in
(1019 mb)
Calm - 10SM
04:53
Clear
45°F / 7°C 37°F / 3°C 76% 30.06 in
(1018 mb)
Calm - 10SM
03:53
Clear
46°F / 8°C 37°F / 3°C 71% 30.04 in
(1017 mb)
NE 6.9 mph
(NE 11 kph)
- 10SM
02:53
Clear
46°F / 8°C 39°F / 4°C 76% 30.04 in
(1017 mb)
NE 8.1 mph
(NE 13 kph)
- 10SM
01:53
Partly Cloudy
46°F / 8°C 45°F / 7°C 93% 30.01 in
(1016 mb)
NE 4.6 mph
(NE 7 kph)
- 9SM
01:44
Partly Cloudy
Fog And Mist
48°F / 9°C 45°F / 7°C 87% 30.01 in
(1016 mb)
Calm - 3SM
01:34
Overcast
Fog And Mist
46°F / 8°C 45°F / 7°C 93% 30.01 in
(1016 mb)
Calm - 1SM
01:27
Overcast
Fog And Mist
46°F / 8°C 45°F / 7°C 93% 30.01 in
(1016 mb)
Calm - 3/4SM
01:18
Mostly Cloudy
Fog And Mist
46°F / 8°C 45°F / 7°C 93% 30.01 in
(1016 mb)
Calm - 1 1/2SM
01:11
Mostly Cloudy
Fog And Mist
46°F / 8°C 45°F / 7°C 93% 30.01 in
(1016 mb)
Calm - 1 1/4SM
00:59
Partly Cloudy
Fog And Mist
46°F / 8°C 45°F / 7°C 93% 30.01 in
(1016 mb)
Calm - 1 3/4SM
00:53
Partly Cloudy
46°F / 8°C 45°F / 7°C 93% 30.01 in
(1016 mb)
Calm - 10SM
00:49
Partly Cloudy
Fog And Mist
46°F / 8°C 45°F / 7°C 93% 30.01 in
(1016 mb)
Calm - 4SM
00:41
Partly Cloudy
Fog And Mist
48°F / 9°C 46°F / 8°C 94% 30.01 in
(1016 mb)
Calm - 1 1/4SM
00:33
Obscured
Fog
48°F / 9°C 45°F / 7°C 87% 30.01 in
(1016 mb)
Calm - 1/2SM
00:25
Clear
Fog And Mist
46°F / 8°C 45°F / 7°C 93% 30.01 in
(1016 mb)
Calm - 1 1/2SM
00:19
Clear
Fog And Mist
46°F / 8°C 45°F / 7°C 93% 30.01 in
(1016 mb)
Calm - 3SM
00:12
Clear
Fog And Mist
46°F / 8°C 45°F / 7°C 93% 30.01 in
(1016 mb)
Calm - 1SM
Time Weather Temperature Dewpoint Humidity Pressure Winds Precip Visibility


Weather for websites

WeatherForYou.com, LLC is not responsible for any damages or problems caused by this service. Current weather conditions are obtained from the closest station including government and personal stations which may have varying degrees of accuracy. Weather forecasts are derived from the NOAA NDFD. Like all things, this site belongs to Jesus Christ... He just trusts us to maintain it. If you have any questions or comments email webmaster@weatherforyou.com

Copyright © 2015, WeatherForYou.com LLC. All rights reserved.